Regional Weather Roundup
Issued by NWS

Home | Current Version | Previous Version | Text Only | Print | Product List | Glossary On
Versions: 1 2 3 4 5 6 7 8 9 10 11 12 13 14 15 16 17 18 19 20 21 22 23 24 25 26 27 28 29 30 31 32 33 34 35 36 37 38 39 40 41 42 43 44 45 46 47 48 49 50
000
ASUS44 KFWD 251015
RWRTX
NORTH TEXAS HOURLY WEATHER ROUNDUP
NATIONAL WEATHER SERVICE FORT WORTH TX
500 AM CDT WED MAY 25 2016

NOTE: "FAIR" INDICATES FEW OR NO CLOUDS BELOW 12,000 FEET WITH NO
SIGNIFICANT WEATHER AND/OR OBSTRUCTIONS TO VISIBILITY.

TXZ118-119-251100-
DALLAS/FORT WORTH METROPLEX

CITY           SKY/WX    TMP DP  RH WIND       PRES   REMARKS
DFW AIRPORT    CLOUDY    78  70  76 S17       29.93R
DALLAS LOVE    CLOUDY    78  71  79 S15       29.94R
FTW MEACHAM      N/A     78  70  76 S18G26    29.93R
DAL-EXECUTIVE  CLOUDY    77  70  79 S8G16     29.95R
FTW-ALLIANCE   CLOUDY    76  70  82 S10G23    29.92R
FTW-NAS-JRB    CLOUDY    78  71  79 S17G25    29.93R
FTW-SPINKS     CLOUDY    77  71  82 S12G18    29.95S
ARLINGTON      CLOUDY    80  71  74 S14       29.94R
GRAND PRAIRIE  MOCLDY    77  69  77 S12       29.95R
ADDISON        CLOUDY    78  72  82 S10G22    29.96R
MESQUITE       CLOUDY    76  72  89 S8        29.96R
LANCASTER      CLOUDY    76  69  80 S10       29.96R
$$

TXZ091>094-102>105-117-120-121-131>134-251100-
NORTH CENTRAL TEXAS

CITY           SKY/WX    TMP DP  RH WIND       PRES   REMARKS
SHRMAN/DENISON PTCLDY    73  65  77 S16G25    29.93R
GAINESVILLE    CLOUDY    75  69  82 S16G23    29.94R
BOWIE          MOCLDY    74  71  89 SE9       29.90R
DECATUR        CLOUDY    75  70  83 S15G22    29.92R
DENTON         LGT RAIN  77  70  79 S23       29.93R
MCKINNEY       MOCLDY    77  71  82 S17       29.93F
GREENVILLE     CLOUDY    77  70  78 S12       29.96R
ROCKWALL       CLOUDY    76  73  90 S14G20    29.95R
TERRELL        CLOUDY    76  72  87 S12       29.97R
WAXAHACHIE     CLOUDY    75  72  90 S8        29.95S
CLEBURNE       CLOUDY    75  75 100 S13       29.95S
GRANBURY       CLOUDY    78  71  79 SE9       29.93R
$$

TXZ083>090-098>101-113>116-127>130-139>142-154-155-251100-
WESTERN NORTH TEXAS

CITY           SKY/WX    TMP DP  RH WIND       PRES   REMARKS
WICHITA FALLS  MOCLDY    75  72  90 S15       29.86R
WF-KICKAPOO    CLOUDY    77  72  85 S14       29.88R
VERNON         CLEAR     75  69  81 S16       29.84S
ABILENE        CLOUDY    75  71  87 S17G24    29.89S
ABILENE-DYESS  CLOUDY    75  66  71 S21       29.86S
BRECKENRIDGE   MOCLDY    77  71  81 S16G22    29.88S
GRAHAM         CLOUDY    76  74  92 SE7       29.87S
MINERAL WELLS  CLOUDY    76  71  85 S10       29.90R
STEPHENVILLE   MOCLDY    74  70  86 S7        29.95S
COMANCHE       PTCLDY    73  73 100 S9        29.93S
COLEMAN        CLOUDY    75  71  89 S8        29.94R
$$

TXZ143>147-156>162-174-175-251100-
CENTRAL TEXAS

CITY           SKY/WX    TMP DP  RH WIND       PRES   REMARKS
WACO           CLOUDY    76  72  87 S14       29.94S
WACO-MCGREGOR  MOCLDY    75  73  93 S13       29.95R
HILLSBORO      CLOUDY    75  72  90 S13       29.95R
CORSICANA      CLOUDY    77  71  82 S10       29.98R
MEXIA          CLOUDY    75  73  92 S8        29.96R
HEARNE         CLOUDY    77  74  91 CALM      29.97R
CAMERON        CLOUDY    78  74  88 S7        29.96R
TEMPLE         MOCLDY    75  73  94 S12       29.96S
KILLEEN        MOCLDY    75  72  88 SE10      29.95R
KILLEEN-SKYLRK CLOUDY    76  73  91 S10       29.96R
FORT HOOD      CLOUDY    74  73  95 S10       29.94R
GATESVILLE     MOCLDY    75  72  88 S7        29.97R
HAMILTON       CLOUDY    75  74  98 S10G21    29.95S
LAMPASAS       CLOUDY    76  73  91 S8G16     29.96R
$$

TXZ095>097-106>112-122>126-135>138-148>153-164>167-251100-
EAST TEXAS

CITY           SKY/WX    TMP DP  RH WIND       PRES   REMARKS
PARIS          CLOUDY    75  64  69 S7        29.97R
SULPHUR SPRNGS CLOUDY    77  71  82 S8        29.99R
MOUNT PLEASANT CLOUDY    76  69  80 SE9       30.00R
GILMER         CLOUDY    75  72  88 SE6       29.99R
MINEOLA        PTCLDY    77  72  83 S5        29.99R
TYLER          CLOUDY    77  70  79 S12G20    29.97R
LONGVIEW       CLOUDY    75  71  87 SE8       29.98R
MARSHALL       CLOUDY    75  71  87 S7        30.02S
ATHENS         CLOUDY    75  72  88 S12G17    29.97R
PALESTINE      CLOUDY    77  73  86 S8        29.99R
JACKSONVILLE   CLOUDY    75  72  89 S8        30.01R
HENDERSON      CLOUDY    75  71  86 S10       30.00R
CENTER         CLOUDY    78  75  92 SE5       30.02R
NACOGDOCHES    CLOUDY    75  72  88 S12G18    29.99R
LUFKIN         PTCLDY    75  72  90 SE9       29.99R
$$

SUPPLEMENTAL OBSERVATIONS (CENTRAL)

CITY           SKY/WX    TMP DP  RH WIND       PRES   REMARKS
LAKE TEXOMA      N/A     77  70  78 SE7         N/A
CADDO GRASSLND   N/A     75  70  83 S12         N/A
PAT MAYSE LAKE   N/A     75  73  94 SE10        N/A
GREENVILLE       N/A     75  70  83 S8G17       N/A
MCGREGOR         N/A     75  70  83 S12         N/A
TEMPLE           N/A     75  72  88 SE9         N/A
$$

SUPPLEMENTAL OBSERVATIONS (WEST)

CITY           SKY/WX    TMP DP  RH WIND       PRES   REMARKS
MILLERS CREEK    N/A     73  70  88 S6          N/A
POSSUM KINGDOM   N/A     75  72  88 S9          N/A
LBJ GRASSLAND    N/A     75  70  83 SE13        N/A
GRANBURY         N/A     77  70  78 SE10G18     N/A
HAMBY            N/A     75  70  83 S15G23      N/A
IVIE RESERVOIR   N/A     75  72  88 CALM        N/A
COLORADO BEND    N/A     73  70  88 SW10        N/A
$$

SUPPLEMENTAL OBSERVATIONS (EAST)

CITY           SKY/WX    TMP DP  RH WIND       PRES   REMARKS
CLARKSVILLE      N/A     75  70  83 S7          N/A
TEXARKANA        N/A     75  70  83 SE3         N/A
LINDEN           N/A     75  72  88 S2          N/A
GILMER           N/A     75  70  83 S6          N/A
HENDERSON        N/A     75  70  83 S7          N/A
LUFKIN           N/A     75  72  88 MISG        N/A
N SABINE NF      N/A     75  70  83 MISG        N/A
S SABINE NF      N/A     75  72  88 SE2         N/A
$$

SUPPLEMENTAL OBSERVATIONS ARE A COLLECTION OF AUTOMATED INSTRUMENTS
THAT ARE MAINTAINED BY A VARIETY OF FEDERAL AND STATE AGENCIES.
CERTAIN ELEMENTS...SUCH AS HUMIDITY VALUES AND SUSTAINED WIND
SPEEDS...MAY BE APPROXIMATED.





USA.gov is the U.S. government's official web portal to all federal, state and local government web resources and services.